Date,TemperatureHighF,TemperatureAvgF,TemperatureLowF,DewpointHighF,DewpointAvgF,DewpointLowF,HumidityHigh,HumidityAvg,HumidityLow,PressureMaxIn,PressureMinIn,WindSpeedMaxMPH,WindSpeedAvgMPH,GustSpeedMaxMPH,PrecipitationSumIn
2013-3-1,30.5,27.4,22.6,27.5,23.8,17.9,94,86,73,30.28,30.11,11,6,13,0.11
2013-3-2,31.6,25.2,18.8,21.5,18.9,14.6,90,77,59,30.33,30.24,9,4,13,0.00
2013-3-3,32.3,25.4,13.9,25.7,19.7,11.5,92,79,67,30.24,30.00,7,3,9,0.00
2013-3-4,40.4,35.1,30.7,31.6,29.1,25.7,87,79,63,30.00,29.76,12,7,15,0.02
2013-3-5,33.4,31.5,28.9,31.0,27.1,22.0,95,84,69,30.22,29.88,16,7,23,0.18
2013-3-6,32.5,27.9,19.6,24.1,21.4,15.9,90,77,67,30.41,30.22,13,6,23,0.02
2013-3-7,36.7,26.5,14.7,27.2,21.8,12.4,100,83,65,30.43,30.32,9,3,11,0.01
2013-3-8,44.2,36.0,25.6,34.1,29.9,23.2,93,79,64,30.38,30.13,11,4,14,0.00
2013-3-9,49.4,42.0,36.9,40.8,37.2,33.1,95,84,68,30.14,29.71,12,5,19,1.29
2013-3-10,47.8,43.4,36.0,46.8,42.5,35.0,98,97,93,29.75,29.52,15,5,19,0.40
2013-3-11,36.0,32.4,29.5,34.9,29.0,24.7,96,87,75,29.97,29.68,12,8,19,0.00
2013-3-12,39.8,31.5,24.5,30.7,25.5,21.4,90,79,60,30.25,29.97,13,6,23,0.00
2013-3-13,39.1,30.2,23.4,23.4,20.0,17.4,82,67,46,30.46,30.25,9,4,16,0.00
2013-3-14,57.9,41.4,28.2,44.0,31.9,20.6,83,70,52,30.39,30.06,12,5,18,0.00
2013-3-15,70.8,50.4,32.2,54.7,42.4,30.3,95,76,51,30.07,29.63,12,2,16,0.00
2013-3-16,49.7,41.0,37.4,44.8,36.9,32.2,91,86,75,30.02,29.62,12,7,19,0.00
2013-3-20,32.5,28.1,23.3,15.0,12.5,9.9,68,52,41,30.30,30.15,11,6,20,0.00
2013-3-21,35.1,25.7,17.2,23.1,15.5,10.9,80,66,46,30.16,30.00,7,2,11,0.00
2013-3-22,37.7,31.7,25.3,27.7,23.0,19.4,82,71,53,30.07,29.99,8,3,13,0.00
2013-3-23,48.1,39.1,33.3,34.4,29.7,25.6,92,70,49,30.07,29.90,13,6,22,0.02
2013-3-24,33.6,30.4,29.2,31.8,29.3,27.8,96,96,93,29.95,29.74,14,9,20,0.10
2013-3-25,33.3,30.4,28.3,29.3,27.9,26.4,96,91,81,30.23,29.90,11,5,18,0.10
2013-3-26,39.1,32.4,26.8,27.6,25.1,22.8,86,75,56,30.36,30.23,7,3,12,0.03
2013-3-27,44.7,34.4,22.4,32.2,26.6,19.7,93,74,52,30.40,30.30,7,2,18,0.00
2013-3-28,52.7,41.8,33.5,40.5,33.4,27.9,82,72,59,30.34,30.22,10,5,16,0.00
2013-3-29,60.9,46.2,33.1,46.0,37.9,30.1,90,74,48,30.26,30.17,8,3,12,0.00
2013-3-30,52.1,46.6,39.1,46.6,42.7,36.5,95,86,73,30.18,29.89,15,6,28,0.00
2013-3-31,63.2,52.4,41.8,48.9,42.1,30.9,96,71,43,29.99,29.84,11,5,18,0.00